Home   Weather   Mobile   Past weeks

Flag for USA Past Weather in Mobile, Alabama, USA — Yesterday and Last 2 Weeks

Now
61 °F

Partly sunny.


Feels Like: 61 °F
Forecast: 55 / 67 °F
Wind: 7 mph from Southwest

Location: Mobile Downtown Airport

Current Time: Dec 6, 2016 at 8:11:06 am

Latest Report: Dec 6, 2016 at 6:53 am


Visibility: 10 mi

Pressure: 29.81 "Hg

Humidity: 87%

Dew Point: 57 °F

Location of MobileLocation

Past Weather in Mobile — Graph

°F

Mobile Temperature Yesterday

Maximum temperature yesterday: 63 °F (at 11:53 am)
Minimum temperature yesterday: 58 °F (at 5:53 am)
Average temperature yesterday: 61 °F

High & Low Weather Summary for the Past Weeks

 TemperatureHumidityPressure
High79 °F (Nov 29, 10:53 am)100% (Nov 24, 4:53 am)30.34 "Hg (Nov 24, 4:53 am)
Low35 °F (Nov 22, 4:53 am)17% (Nov 22, 11:53 am)29.68 "Hg (Dec 6, 12:53 am)
Average61 °F73%30.07 "Hg
* Reported Nov 21 6:53 am — Dec 6 6:53 am, Mobile, Weather by CustomWeather, © 2016

Note: Actual official high and low records may vary slightly from our data, if they occured in-between our weather recording intervals... More about our weather records

Advertising

Mobile Weather History for the Previous 24 Hours

Scroll right to see more
 ConditionsComfort  
Time TempWeatherWind HumidityBarometerVisibility
6:53 am
Tue, Dec 6
61 °FPartly sunny.7 mph87%29.81 "Hg10 mi
5:53 am63 °FPassing clouds.9 mph90%29.77 "Hg10 mi
4:53 am66 °FPassing clouds.9 mph90%29.72 "Hg10 mi
3:53 am69 °FLow clouds.8 mph96%29.71 "Hg8 mi
3:02 am67 °FMostly cloudy.5 mph100%29.70 "Hg10 mi
2:53 am67 °FMostly cloudy.6 mph97%29.69 "Hg10 mi
2:03 am63 °FMostly cloudy.No wind100%29.68 "Hg9 mi
1:53 am63 °FMostly cloudy.3 mph100%29.68 "Hg9 mi
12:53 am63 °FLow clouds.No wind100%29.68 "Hg10 mi
12:02 am62 °FRain. Fog.No wind100%29.69 "Hg3 mi
10:53 pm
Mon, Dec 5
62 °FLight rain. Passing clouds.No wind96%29.72 "Hg10 mi
10:03 pm62 °FPassing clouds.6 mph96%29.75 "Hg10 mi
9:53 pm62 °FPassing clouds.9 mph93%29.73 "Hg10 mi
8:53 pm61 °FMostly cloudy.7 mph97%29.75 "Hg10 mi
7:53 pm62 °FOvercast.9 mph96%29.75 "Hg10 mi
6:53 pm62 °FPartly cloudy.6 mph93%29.74 "Hg10 mi
5:53 pm62 °FMostly cloudy.10 mph93%29.77 "Hg10 mi
4:53 pm60 °FLight rain. Low clouds.14 mph96%29.78 "Hg10 mi
4:00 pm61 °FRain. Fog.9 mph97%29.77 "Hg4 mi
3:53 pm61 °FThundershowers. Fog.15 mph100%29.77 "Hg4 mi
2:51 pm63 °FLight rain. Fog.14 mph97%29.78 "Hg5 mi
1:53 pm63 °FThundershowers. Fog.14 mph100%29.77 "Hg3 mi
1:00 pm63 °FLight rain. Fog.9 mph100%29.77 "Hg2 mi
11:53 am63 °FLight rain. Fog.7 mph97%29.83 "Hg1 mi
10:53 am62 °FFog.7 mph100%29.88 "Hg1 mi
9:53 am62 °FFog.6 mph96%29.91 "Hg1 mi
8:53 am60 °FFog.7 mph100%29.92 "Hg1 mi
Weather by CustomWeather, © 2016

See weather overviewHow to use our weather pages